Retour au catalogue

ARIANE 5 R/B

ActifHEO
NORAD 32295·ROCKET BODY·🇫🇷 France

Lancé Nov 14, 2007 depuis Guiana Space Centre

Loading…

Prochains Passages (prochaines 24 heures)

TLE

FraisSource: Space-Track

Époque: Sep 14, 2026, 15:14 UTC

1 32295U 07056C   26257.63511370  .00007266  00000-0  67187-3 0  9990
2 32295   5.9699 117.8452 6709054 283.4035  14.6139  3.05779748177330

Suivez ARIANE 5 R/B en temps réel avec AllMySat

Download on the App Store